"TOA5","AWS1","CR1000","7964","CR1000.Std.14","CPU:AWS1_114.CR1","64363","TBL110"
"TIMESTAMP","RECORD","Wind_spd_WVc(1)","Wind_spd_WVc(2)","Air_Temp_Avg","Humidity_Avg","SW_upper_Wm2_Avg","Rain_Tot","Press_Avg","Issui_Tot","Depth_cm","SR50A_Raw","Quality","Ground_Temp_Avg(1)","Ground_Temp_Avg(2)","SW_lower_Wm2_Avg","Albedo_Avg","SWC_per(1)","SWC_per(2)","Period(1)","Period(2)"
"TS","RN","","","","","","","","","","","","","","","","","","",""
"","","WVc","WVc","Avg","Avg","Avg","Tot","Avg","Tot","Smp","Smp","Smp","Avg","Avg","Avg","Avg","Smp","Smp","Smp","Smp"
"2016-05-24 00:00:00",236797,0.534,181.7,12.04,64.79,0,0,868.2343,0,5.837,3.055,417,16.76,15.58,0.420639,0,45.66,54.01,32.2,34.27
"2016-05-24 00:10:00",236798,0.433,185.9,12.23,63.47,0,0,868.3223,0,4.805,3.063,349,16.78,15.58,0.5852045,0,45.61,54.01,32.19,34.27
"2016-05-24 00:20:00",236799,0.212,184,12.37,63.01,0,0,868.3965,0,4.939,3.061,320,16.68,15.58,0.4547449,0,45.66,54.01,32.2,34.27
"2016-05-24 00:30:00",236800,0.207,179,12.27,64.16,0,0,868.1901,0,5.681,3.057,334,16.62,15.58,0.2008457,0,45.61,54.01,32.19,34.27
"2016-05-24 00:40:00",236801,0.302,182.5,12.07,65.22,0,0,868.1627,0,4.171,3.072,325,16.62,15.58,0.2008457,0,45.61,54.01,32.19,34.27
"2016-05-24 00:50:00",236802,0.507,183.5,11.91,66.21,0,0,868.0195,0,2.993,3.084,286,16.57,15.58,0.1591607,0,45.61,54.01,32.19,34.27
"2016-05-24 01:00:00",236803,0.307,182.3,12.25,64.54,0,0,867.9626,0,2.171,3.089,292,16.53,15.58,0.7124337,0,45.61,54.01,32.19,34.27
"2016-05-24 01:10:00",236804,0.43,176.2,12.35,64.23,0,0,867.9121,0,2.369,3.088,292,16.43,15.58,0.371375,0,45.61,54.01,32.19,34.27
"2016-05-24 01:20:00",236805,0.274,182.7,12.56,63.12,0,0,867.9121,0,-0.146,3.106,256,16.43,15.58,0.6783278,0,45.61,53.95,32.19,34.26
"2016-05-24 01:30:00",236806,0.166,186.5,13.31,59.64,0,0,867.8953,0,-2.109,3.128,229,16.33,15.58,0.8299094,0,45.61,53.95,32.19,34.26
"2016-05-24 01:40:00",236807,0.093,181.3,13.3,59.39,0,0,867.8973,0,-1.911,3.123,228,16.34,15.58,0.6783278,0,45.61,53.95,32.19,34.26
"2016-05-24 01:50:00",236808,0.033,181.4,13.39,58.53,0,0,867.9036,0,-1.327,3.118,278,16.24,15.58,0.6404324,0,45.61,53.95,32.19,34.26
"2016-05-24 02:00:00",236809,0.28,181.5,12.97,61.09,0,0,867.8721,0,-1.948,3.13,258,16.26,15.58,0.2425306,0,45.61,53.95,32.19,34.26
"2016-05-24 02:10:00",236810,0.366,182.2,12.42,62.31,0,0,867.7584,0,-2.659,3.136,225,16.18,15.58,0,0,45.61,53.95,32.19,34.26
"2016-05-24 02:20:00",236811,0.369,182,12.14,63.88,0,0,867.6656,0,-2.508,3.135,224,16.16,15.58,0.04926403,0,45.61,53.95,32.19,34.26
"2016-05-24 02:30:00",236812,0.19,200.8,12.89,59.94,0,0,867.6593,0,-2.264,3.13,242,16.08,15.59,0.7313814,0,45.61,53.95,32.19,34.26
"2016-05-24 02:40:00",236813,0.056,193.3,12.87,59.21,0,0,867.6593,0,-2.323,3.132,255,16.08,15.57,0.3334796,0,45.61,53.95,32.19,34.26
"2016-05-24 02:50:00",236814,0.188,184.4,12.14,63.17,0,0,867.6593,0,-1.501,3.128,248,15.99,15.53,0,0,45.61,53.95,32.19,34.26
"2016-05-24 03:00:00",236815,0.409,186.1,11.65,65.19,0,0,867.6593,0,-0.212,3.118,329,15.95,15.5,0,0,45.61,53.95,32.19,34.26
"2016-05-24 03:10:00",236816,0.606,186.4,11.31,65.15,0,0,867.6593,0,-1.432,3.129,236,15.93,15.49,0,0,45.56,53.95,32.17,34.26
"2016-05-24 03:20:00",236817,0.517,183.2,11.48,63.25,0,0,867.6593,0,-0.772,3.123,241,15.87,15.49,0,0,45.61,53.95,32.19,34.26
"2016-05-24 03:30:00",236818,0.572,184,11.39,62.72,0,0,867.6593,0,-1.948,3.135,234,15.82,15.49,0,0,45.56,53.95,32.17,34.26
"2016-05-24 03:40:00",236819,0.592,188.3,11.28,62.48,0,0,867.6593,0,-2.409,3.14,224,15.8,15.49,0,0,45.61,53.9,32.19,34.25
"2016-05-24 03:50:00",236820,0.615,188.4,11.2,62.6,0,0,867.6593,0,-1.116,3.129,242,15.75,15.5,0,0,45.61,53.9,32.19,34.25
"2016-05-24 04:00:00",236821,0.673,190.5,10.97,63.32,0,0,867.6593,0,6.227,3.057,380,15.7,15.43,0,0,45.61,53.9,32.19,34.25
"2016-05-24 04:10:00",236822,0.462,186.3,11.19,61.93,0,0,867.6425,0,5.408,3.062,422,15.67,15.41,0.1326339,0,45.61,53.9,32.19,34.25
"2016-05-24 04:20:00",236823,0.245,187,11.48,60.07,0,0,867.6552,0,5.401,3.063,422,15.62,15.41,0.2880051,0,45.56,53.9,32.17,34.25
"2016-05-24 04:30:00",236824,0.521,187.9,11.02,62.15,0,0,867.6593,0,-38.21,3.493,290,15.58,15.41,0.2235841,0,45.61,53.9,32.19,34.25
"2016-05-24 04:40:00",236825,0.596,192.6,11,60.64,1.434572,0,867.6593,0,-34.86,3.458,442,15.58,15.41,1.049717,0.394,45.61,53.9,32.19,34.25
"2016-05-24 04:50:00",236826,0.617,185.6,11.1,59.69,6.716908,0,867.6257,0,5.944,3.06,322,15.5,15.41,2.137319,0.328,45.61,53.9,32.19,34.25
"2016-05-24 05:00:00",236827,0.606,187.7,11,59.23,13.62241,0,867.6025,0,-44.39,3.552,416,15.47,15.42,3.084697,0.227,45.61,53.9,32.19,34.25
"2016-05-24 05:10:00",236828,0.556,187.1,11.28,57.91,21.4751,0,867.6109,0,5.982,3.058,366,15.39,15.44,4.25945,0.2,45.61,53.9,32.19,34.25
"2016-05-24 05:20:00",236829,0.598,186,11.37,56.82,37.90369,0,867.6593,0,5.305,3.063,309,15.41,15.4,6.658229,0.176,45.56,53.9,32.17,34.25
"2016-05-24 05:30:00",236830,0.575,187.3,11.6,54.78,45.13542,0,867.6593,0,5.666,3.059,409,15.35,15.32,7.696565,0.171,45.56,53.9,32.17,34.25
"2016-05-24 05:40:00",236831,0.563,184.6,11.53,55.8,53.99035,0,867.6593,0,5.1,3.065,412,15.3,15.31,8.935745,0.166,45.61,53.9,32.19,34.25
"2016-05-24 05:50:00",236832,0.567,184.3,11.89,55.15,115.012,0,867.6593,0,1.858,3.093,336,15.29,15.31,25.26868,0.219,45.61,53.84,32.19,34.23
"2016-05-24 06:00:00",236833,0.315,182.4,12.59,52.88,168.8766,0,867.6783,0,3.961,3.068,370,15.16,15.28,33.80653,0.206,45.61,53.84,32.19,34.23
"2016-05-24 06:10:00",236834,0.165,182,13.35,52.02,162.0103,0,867.8215,0,3.935,3.065,382,15.15,15.27,34.37496,0.213,45.61,53.84,32.19,34.23
"2016-05-24 06:20:00",236835,0.025,36.39,14.44,46.49,145.0394,0,867.9079,0,2.141,3.076,352,15.16,15.3,31.17279,0.215,45.61,53.84,32.19,34.23
"2016-05-24 06:30:00",236836,0.084,164.1,14.7,49.6,147.3268,0,867.9121,0,-4.105,3.138,211,15.19,15.31,29.25907,0.199,45.61,53.84,32.19,34.23
"2016-05-24 06:40:00",236837,0.043,158.5,14.72,49.59,147.1382,0,867.9109,0,-4.979,3.147,200,15.17,15.3,27.31125,0.186,45.56,53.84,32.17,34.23
"2016-05-24 06:50:00",236838,0.003,158,14.51,50.27,166.1681,0,867.885,0,-4.205,3.139,196,15.14,15.24,28.53896,0.174,45.61,53.84,32.19,34.23
"2016-05-24 07:00:00",236839,0.303,124.6,15.08,46.77,164.4694,0,867.8685,0,-4.067,3.133,194,15.13,15.25,35.16209,0.222,45.61,53.84,32.19,34.23
"2016-05-24 07:10:00",236840,0.452,126.7,15.81,43.04,136.5459,0,867.8447,0,-36.48,3.445,251,15.1,15.25,36.4901,0.268,45.56,53.84,32.17,34.23
"2016-05-24 07:20:00",236841,0.533,132.4,16.3,37.41,133.7569,0,867.8333,0,-37.64,3.453,244,15.08,15.24,36.51103,0.273,45.61,53.84,32.19,34.23
"2016-05-24 07:30:00",236842,0.631,146.8,16.84,33.68,153.2664,0,867.8234,0,-37.87,3.452,270,15.02,15.2,41.48727,0.271,45.56,53.84,32.17,34.23
"2016-05-24 07:40:00",236843,0.438,152.2,17.46,34.12,220.3328,0,867.9157,0,-33.15,3.401,240,15,15.14,55.22097,0.257,45.56,53.84,32.17,34.23
"2016-05-24 07:50:00",236844,1.061,135.1,17.63,33.58,450.2787,0,868.0477,0,5.669,3.028,421,15.02,15.1,56.89318,0.128,45.61,53.84,32.19,34.23
"2016-05-24 08:00:00",236845,0.95,139.3,17.61,33.73,568.1531,0,868.037,0,-1.591,3.097,208,14.99,15.04,84.72482,0.149,45.56,53.84,32.17,34.23
"2016-05-24 08:10:00",236846,1.008,135,17.65,33.26,474.6059,0,868.0012,0,-0.773,3.09,222,14.99,15.04,75.31438,0.158,45.56,53.84,32.17,34.23
"2016-05-24 08:20:00",236847,1.224,135.1,17.53,33.26,555.235,0,867.8475,0,-1.431,3.095,255,15,15.01,93.76685,0.167,45.61,53.78,32.19,34.22
"2016-05-24 08:30:00",236848,0.98,140.9,18.03,32.56,728.1635,0,867.8202,0,-0.741,3.086,275,14.97,15.01,126.9102,0.174,45.61,53.84,32.19,34.23
"2016-05-24 08:40:00",236849,1.03,145.8,18.5,31.71,803.5206,0,867.8181,0,-37.31,3.438,255,14.93,15,137.6878,0.171,45.56,53.78,32.17,34.22
"2016-05-24 08:50:00",236850,1.203,136.9,18.54,31.58,811.8382,0,867.7486,0,-34.26,3.407,265,14.92,14.94,138.9379,0.171,45.56,53.84,32.17,34.23
"2016-05-24 09:00:00",236851,0.903,146.8,18.84,30.67,811.3471,0,867.5674,0,4.957,3.027,354,14.92,14.94,137.7825,0.17,45.56,53.78,32.17,34.22
"2016-05-24 09:10:00",236852,0.655,147,19.23,30.07,828.0922,0,867.5128,0,5.322,3.021,309,14.92,14.96,138.7637,0.166,45.61,53.84,32.19,34.23
"2016-05-24 09:20:00",236853,0.775,114.3,19.42,30.18,824.6387,0,867.5106,0,4.341,3.028,314,14.93,14.97,137.559,0.166,45.56,53.78,32.17,34.22
"2016-05-24 09:30:00",236854,1.064,141.5,19.54,28.77,842.5233,0,867.5065,0,-0.539,3.079,264,14.96,14.91,141.4761,0.167,45.56,53.84,32.17,34.23
"2016-05-24 09:40:00",236855,0.875,140,19.34,29.43,852.436,0,867.5254,0,-34.94,3.409,236,14.96,14.88,144.4877,0.169,45.56,53.78,32.17,34.22
"2016-05-24 09:50:00",236856,1.187,133.6,19.45,29,952.4238,0,867.4159,0,-2.457,3.098,233,15.01,14.84,165.3837,0.174,45.56,53.78,32.17,34.22
"2016-05-24 10:00:00",236857,1.051,135.8,19.76,29.95,970.0333,0,867.3212,0,-35.49,3.413,231,14.99,14.84,167.6756,0.173,45.56,53.78,32.17,34.22
"2016-05-24 10:10:00",236858,1.167,141.2,19.38,30.23,740.1829,0,867.3148,0,5.153,3.024,358,14.97,14.84,125.568,0.169,45.5,53.78,32.16,34.22
"2016-05-24 10:20:00",236859,0.447,128,19.95,32.04,715.0211,0,867.3001,0,-33.36,3.391,334,15.02,14.85,120.628,0.168,45.5,53.78,32.16,34.22
"2016-05-24 10:30:00",236860,0.466,65.74,20.07,32.4,659.9221,0,867.1212,0,3.544,3.033,294,15.1,14.86,109.7186,0.166,45.5,53.78,32.16,34.22
"2016-05-24 10:40:00",236861,0.498,116.8,20.73,32.5,777.6233,0,867.0896,0,-1.032,3.076,221,15.14,14.8,129.3496,0.166,45.5,53.78,32.16,34.22
"2016-05-24 10:50:00",236862,0.447,64.39,21.14,30.6,1057.113,0,867.0623,0,3.494,3.029,294,15.22,14.73,176.9604,0.167,45.5,53.78,32.16,34.22
"2016-05-24 11:00:00",236863,0.578,132.2,21.19,29.23,747.0178,0,867.0623,0,-37.93,3.43,342,15.23,14.72,119.0874,0.152,45.5,53.73,32.16,34.21
"2016-05-24 11:10:00",236864,1.081,134.5,20.38,27.27,718.6429,0,867.0349,0,6.678,3.003,265,15.32,14.75,116.947,0.162,45.45,53.73,32.15,34.21
"2016-05-24 11:20:00",236865,1.062,67.68,20.77,27.18,973.6234,0,866.879,0,-1.532,3.079,213,15.4,14.75,166.5314,0.17,45.45,53.73,32.15,34.21
"2016-05-24 11:30:00",236866,0.742,127.2,20.12,28.75,364.4448,0,866.8137,0,-1.388,3.084,232,15.5,14.75,55.87667,0.153,45.45,53.73,32.15,34.21
"2016-05-24 11:40:00",236867,0.743,121.8,19.54,29.95,463.1556,0,866.8096,0,6.701,3.007,348,15.58,14.72,77.38255,0.165,45.4,53.73,32.13,34.21
"2016-05-24 11:50:00",236868,0.711,122.4,19.89,30.1,412.6529,0,866.8096,0,-1.358,3.086,227,15.66,14.7,66.62014,0.16,45.45,53.73,32.15,34.21
"2016-05-24 12:00:00",236869,0.652,94.4,20.09,29.1,718.6508,0,866.8074,0,-1.013,3.074,245,15.78,14.7,124.4326,0.173,45.4,53.73,32.13,34.21
"2016-05-24 12:10:00",236870,0.749,77.64,20.92,30.29,709.2174,0,866.6642,0,-2.277,3.088,228,15.9,14.67,119.0987,0.168,45.4,53.73,32.13,34.21
"2016-05-24 12:20:00",236871,0.355,90.3,20.65,29.57,589.4632,0,866.5947,0,-1.286,3.078,238,15.94,14.65,96.04726,0.162,45.4,53.67,32.13,34.19
"2016-05-24 12:30:00",236872,0.405,85.2,21.29,31.92,888.884,0,866.5611,0,-2.004,3.079,212,16.01,14.66,151.7572,0.171,45.4,53.67,32.13,34.19
"2016-05-24 12:40:00",236873,0.675,47.12,22.15,29.61,1106.261,0,866.5568,0,-3.786,3.095,195,16.08,14.73,190.3671,0.172,45.4,53.67,32.13,34.19
"2016-05-24 12:50:00",236874,0.629,105.4,21.99,27.48,1061.396,0,866.5273,0,-1.663,3.073,272,16.18,14.71,180.0024,0.17,45.35,53.67,32.12,34.19
"2016-05-24 13:00:00",236875,1.1,121.2,22.32,25.56,1085.025,0,866.3863,0,-2.246,3.082,246,16.24,14.74,184.1733,0.17,45.35,53.67,32.12,34.19
"2016-05-24 13:10:00",236876,0.564,76.94,22.52,25.09,1034.364,0,866.1799,0,0.345,3.051,308,16.29,14.71,176.4111,0.171,45.29,53.61,32.1,34.18
"2016-05-24 13:20:00",236877,0.694,12.99,22.31,25,711.6409,0,866.0473,0,-2.031,3.082,208,16.42,14.7,113.5438,0.157,45.24,53.61,32.09,34.18
"2016-05-24 13:30:00",236878,0.669,47.9,21.57,25.96,735.7662,0,866.0936,0,5.978,3.002,354,16.5,14.59,122.1345,0.165,45.29,53.61,32.1,34.18
"2016-05-24 13:40:00",236879,0.547,65.4,22.42,26.8,954.3243,0,866.0494,0,-4.898,3.1,196,16.58,14.67,164.9118,0.172,45.24,53.61,32.09,34.18
"2016-05-24 13:50:00",236880,0.822,356.6,22.71,26.08,928.9468,0,866.0347,0,318,0,0,16.69,14.71,158.4314,0.17,45.19,53.56,32.08,34.17
"2016-05-24 14:00:00",236881,0.675,54.94,22.76,24.53,957.9338,0,865.9366,0,6.465,2.992,281,16.79,14.69,164.1635,0.171,45.19,53.56,32.08,34.17
"2016-05-24 14:10:00",236882,0.866,8.31,22.42,22.73,649.9766,0,865.8383,0,-2.208,3.083,262,16.87,14.69,104.7753,0.16,45.14,53.56,32.06,34.17
"2016-05-24 14:20:00",236883,0.455,321,21.27,25.29,443.9519,0,865.8229,0,6.16,3.006,340,16.94,14.73,67.56297,0.151,45.14,53.56,32.06,34.17
"2016-05-24 14:30:00",236884,0.482,117.9,20.98,27.77,590.9225,0,865.9601,0,-2.287,3.084,199,17.07,14.75,94.1294,0.158,45.14,53.5,32.06,34.15
"2016-05-24 14:40:00",236885,0.84,101.5,21.73,27.13,675.1458,0,865.866,0,-35.03,3.4,293,17.17,14.71,102.2329,0.146,45.14,53.5,32.06,34.15
"2016-05-24 14:50:00",236886,0.696,128.1,21.15,29.15,683.2264,0,865.843,0,-0.735,3.072,215,17.27,14.69,91.90656,0.134,45.08,53.56,32.05,34.17
"2016-05-24 15:00:00",236887,0.89,143.5,20.87,31.02,592.1426,0,865.8177,0,-1.697,3.084,208,17.28,14.67,75.89375,0.129,45.08,53.5,32.05,34.15
"2016-05-24 15:10:00",236888,0.712,146.6,20.16,32.68,368.9002,0,865.7629,0,2.901,3.041,265,17.38,14.67,50.25491,0.137,45.03,53.5,32.04,34.15
"2016-05-24 15:20:00",236889,0.627,87,20.11,33.11,256.89,0,865.5566,0,-2.223,3.09,213,17.43,14.7,38.68938,0.15,45.08,53.5,32.05,34.15
"2016-05-24 15:30:00",236890,0.578,87.4,20.21,31.81,226.7747,0,865.5461,0,-1.45,3.083,211,17.5,14.74,35.13601,0.155,45.03,53.5,32.04,34.15
"2016-05-24 15:40:00",236891,0.501,94.2,20.02,32.74,251.9474,0,865.5504,0,-1.658,3.085,262,17.58,14.76,40.17817,0.159,44.98,53.5,32.02,34.15
"2016-05-24 15:50:00",236892,0.542,85.7,20.01,34.2,203.7864,0,865.464,0,5.056,3.022,488,17.62,14.82,31.31745,0.153,44.98,53.45,32.02,34.14
"2016-05-24 16:00:00",236893,0.442,140.3,19.77,36.71,248.0184,0,865.3903,0,-4.886,3.118,200,17.69,14.84,40.25772,0.162,44.98,53.45,32.02,34.14
"2016-05-24 16:10:00",236894,0.549,92.5,19.92,36.57,261.0233,0,865.386,0,6.402,3.009,480,17.66,14.84,42.2314,0.161,44.93,53.5,32.01,34.15
"2016-05-24 16:20:00",236895,0.721,115.7,19.64,35.84,166.4025,0,865.1713,0,7.484,2.999,267,17.7,14.84,24.94183,0.147,44.98,53.5,32.02,34.15
"2016-05-24 16:30:00",236896,0.69,88,19.82,32.54,174.5669,0,865.1355,0,-30.26,3.361,214,17.77,14.89,29.66199,0.17,44.93,53.45,32.01,34.14
"2016-05-24 16:40:00",236897,0.657,83.3,20.23,30.83,155.1343,0,865.1334,0,1.211,3.058,238,17.75,14.92,24.34707,0.156,44.87,53.5,32,34.15
"2016-05-24 16:50:00",236898,0.771,99.4,19.87,32.99,128.3075,0,865.245,0,0.514,3.067,256,17.75,14.92,20.38836,0.159,44.87,53.5,32,34.15
"2016-05-24 17:00:00",236899,0.594,83.8,19.67,34.51,124.3157,0,865.0744,0,7.818,2.996,409,17.75,14.92,19.35037,0.155,44.87,53.45,32,34.14
"2016-05-24 17:10:00",236900,0.746,54.42,19.51,34.02,138.2477,0,865.2829,0,-0.347,3.076,222,17.76,14.93,22.16125,0.16,44.82,53.45,31.98,34.14
"2016-05-24 17:20:00",236901,0.458,86.7,19.27,34.4,100.9856,0,865.2934,0,1.131,3.064,235,17.76,14.96,14.76659,0.145,44.82,53.45,31.98,34.14
"2016-05-24 17:30:00",236902,0.64,71.7,18.72,34.81,76.74011,0,865.2934,0,-34.88,3.415,258,17.79,15.01,10.95183,0.143,44.77,53.45,31.97,34.14
"2016-05-24 17:40:00",236903,0.811,34.87,18.42,33.84,43.55233,0,865.2724,0,-36.12,3.428,278,17.79,15.01,5.864209,0.134,44.77,53.45,31.97,34.14
"2016-05-24 17:50:00",236904,0.822,77.13,18.17,34.68,23.2397,0,865.4135,0,318,0,0,17.81,15.05,3.098788,0.132,44.82,53.45,31.98,34.14
"2016-05-24 18:00:00",236905,0.683,89.7,18.03,35.66,54.69481,0,865.1776,0,5.24,3.029,459,17.84,15.07,9.277421,0.169,44.82,53.45,31.98,34.14
"2016-05-24 18:10:00",236906,0.597,35.28,17.97,37.2,23.4442,0,865.5125,0,-0.656,3.087,233,17.79,15.03,3.697361,0.157,44.77,53.39,31.97,34.13
"2016-05-24 18:20:00",236907,0.558,61.61,17.83,37.59,16.01848,0,865.6198,0,-1.385,3.095,225,17.73,15.09,2.617709,0.163,44.77,53.39,31.97,34.13
"2016-05-24 18:30:00",236908,0.586,63.84,17.66,37.51,11.81448,0,865.5629,0,-1.029,3.092,226,17.74,15.13,1.920666,0.161,44.77,53.39,31.97,34.13
"2016-05-24 18:40:00",236909,0.713,41.77,17.58,38.04,6.98971,0,865.5945,0,-35.72,3.429,208,17.79,15.18,1.147859,0.163,44.72,53.39,31.96,34.13
"2016-05-24 18:50:00",236910,0.619,123.2,17.42,38.85,3.033203,0,865.584,0,5.452,3.031,235,17.71,15.18,0.4091391,0.122,44.72,53.39,31.96,34.13
"2016-05-24 19:00:00",236911,0.711,106.9,17.26,39.84,0.2121672,0,865.5524,0,-32.99,3.404,200,17.69,15.15,0,0,44.77,53.39,31.97,34.13
"2016-05-24 19:10:00",236912,0.616,50.9,17.14,40.36,0,0,865.5629,0,-0.621,3.091,230,17.69,15.21,0,0,44.72,53.39,31.96,34.13
"2016-05-24 19:20:00",236913,0.496,64.42,17.01,41.6,0,0,865.6534,0,-35.07,3.426,201,17.59,15.2,0,0,44.72,53.33,31.96,34.11
"2016-05-24 19:30:00",236914,0.597,68.96,16.89,42.89,0,0,865.7188,0,5.359,3.035,392,17.62,15.22,0,0,44.72,53.33,31.96,34.11
"2016-05-24 19:40:00",236915,0.664,93.5,16.74,43.7,0,0,865.7988,0,4.432,3.044,354,17.54,15.29,0,0,44.72,53.33,31.96,34.11
"2016-05-24 19:50:00",236916,0.559,77.96,16.64,45.06,0,0,865.7988,0,6.273,3.027,257,17.53,15.29,0,0,44.72,53.33,31.96,34.11
"2016-05-24 20:00:00",236917,0.624,96.2,16.51,45.83,0,0,865.7966,0,5.288,3.037,301,17.49,15.31,0,0,44.67,53.33,31.94,34.11
"2016-05-24 20:10:00",236918,0.453,88.5,16.33,47.2,0,0,865.843,0,-34.82,3.427,236,17.49,15.35,0,0,44.67,53.33,31.94,34.11
"2016-05-24 20:20:00",236919,0.519,46.08,16.24,48.16,0,0,866.0143,0,-37.69,3.456,233,17.47,15.35,0,0,44.67,53.33,31.94,34.11
"2016-05-24 20:30:00",236920,0.374,45.37,16.11,48.51,0,0,866.0599,0,-35.12,3.432,236,17.43,15.41,0,0,44.67,53.33,31.94,34.11
"2016-05-24 20:40:00",236921,0.456,65.13,16,48.04,0,0,866.0593,0,-35.64,3.437,212,17.39,15.44,0,0,44.67,53.33,31.94,34.11
"2016-05-24 20:50:00",236922,0.496,54.9,16.01,47.04,0,0,866.0621,0,4.683,3.045,284,17.35,15.44,0,0,44.67,53.33,31.94,34.11
"2016-05-24 21:00:00",236923,0.649,14.91,15.91,46.93,0,0,866.1131,0,5.524,3.038,283,17.33,15.43,0,0,44.67,53.33,31.94,34.11
"2016-05-24 21:10:00",236924,0.536,24.37,15.64,48.77,0,0,866.2758,0,5.324,3.042,280,17.29,15.41,0,0,44.67,53.28,31.94,34.1
"2016-05-24 21:20:00",236925,0.457,5.532,15.27,52.84,0,0,866.32,0,4.684,3.05,271,17.25,15.47,0,0,44.67,53.28,31.94,34.1
"2016-05-24 21:30:00",236926,0.398,19.29,14.95,54.92,0,0,866.3328,0,4.778,3.05,241,17.18,15.51,0,0,44.67,53.28,31.94,34.1
"2016-05-24 21:40:00",236927,0.421,32.77,14.86,55.45,0,0,866.3549,0,5.277,3.046,244,17.2,15.51,0,0,44.67,53.28,31.94,34.1
"2016-05-24 21:50:00",236928,0.286,40.84,14.79,55.51,0,0,866.3233,0,4.727,3.052,251,17.17,15.52,0,0,44.67,53.28,31.94,34.1
"2016-05-24 22:00:00",236929,0.338,42.04,14.63,55.88,0,0,866.2408,0,4.487,3.055,254,17.15,15.53,0,0,44.61,53.28,31.93,34.1
"2016-05-24 22:10:00",236930,0.328,36.35,14.5,55.63,0,0,866.3668,0,5.071,3.05,253,17.1,15.52,0,0,44.67,53.28,31.94,34.1
"2016-05-24 22:20:00",236931,0.2,46.89,14.31,57.86,0,0,866.38,0,4.994,3.051,259,17.07,15.52,0,0,44.61,53.22,31.93,34.08
"2016-05-24 22:30:00",236932,0.05,30.78,14.11,59.21,0,0,866.3907,0,5.055,3.052,254,17,15.5,0,0,44.61,53.22,31.93,34.08
"2016-05-24 22:40:00",236933,0.091,100.5,13.97,58.94,0,0,866.3741,0,6.332,3.04,270,16.99,15.5,0,0,44.61,53.22,31.93,34.08
"2016-05-24 22:50:00",236934,0.07,60.98,13.87,58.14,0,0,866.1621,0,6.892,3.035,256,16.96,15.5,0,0,44.56,53.22,31.91,34.08
"2016-05-24 23:00:00",236935,0.265,38.8,13.8,57.61,0,0,866.1445,0,6.142,3.043,238,16.9,15.5,0.05305355,0,44.56,53.22,31.91,34.08
"2016-05-24 23:10:00",236936,0.334,79.11,13.65,56.86,0,0,866.1415,0,7.112,3.034,253,16.92,15.5,0,0,44.61,53.28,31.93,34.1
"2016-05-24 23:20:00",236937,0.306,68.93,13.59,54.68,0,0,866.1063,0,7.568,3.03,256,16.87,15.5,0,0,44.61,53.22,31.93,34.08
"2016-05-24 23:30:00",236938,0.237,33.45,13.56,53.07,0,0,866.1437,0,7.308,3.033,239,16.85,15.5,0,0,44.56,53.28,31.91,34.1
"2016-05-24 23:40:00",236939,0.206,111,13.32,54.43,0,0,866.0899,0,7.528,3.032,239,16.79,15.49,0,0,44.56,53.22,31.91,34.08
"2016-05-24 23:50:00",236940,0.486,47.91,13.31,51,0,0,866.0459,0,6.299,3.044,215,16.72,15.5,0.007579082,0,44.56,53.28,31.91,34.1
